Meath Environmental Platform

Observations for Trim Market St

Time AQI Temp °C Hum % Pres Pa CO μg/m³ H₂S μg/m³ NO μg/m³ NO₂ μg/m³ O₃ μg/m³ SO₂ μg/m³ PM1 μg/m³ PM2.5 μg/m³ PM10 μg/m³
Tuesday 18 August 2026
17:19 2 22.5 50 62,266 0 0 2.75 12.91 76.07 0 0 1.92 2.32
17:18 2 22.5 50 62,337 0 0 2.74 15.83 73.8 0 0 2.44 2.68
17:17 2 22.5 50 62,472 0 0 2.71 11.84 81.44 0 0 2.45 3.06
17:16 2 22.5 50 62,539 0 0 2.66 13.16 75.83 0 0 2.45 3.06
17:15 2 22.5 50 62,630 0 0 2.76 15.41 75.15 0 0 2.97 3.05
17:14 2 22.6 50 62,786 0 0 2.72 11.73 80.95 0 0.71 3.49 3.79
17:13 2 22.6 50 62,956 0 0 2.68 13.78 78.07 0 0 2.47 2.71
17:12 2 22.6 50 63,175 0 0 2.65 21.6 67.53 0 0 2.99 3.79
17:11 2 22.7 50 63,311 0 0 2.66 11.58 84.1 0 0 2.99 4.53
17:10 2 22.7 49 63,396 0 0 2.65 11.93 84.05 0 0 2.99 3.78
17:09 2 22.7 49 63,513 0 0 2.66 11.52 84.97 0 0 2.48 2.73
17:08 2 22.8 49 63,623 0 0 2.7 14.12 75.87 0 0 2.48 2.73
17:07 2 22.8 49 63,699 0.92 1.62 2.73 12.58 71.18 0 0 2.48 2.73
17:06 2 22.8 49 63,726 0 0 2.88 12.21 81.46 0 0.71 2.48 2.73
17:04 2 22.9 49 63,787 0.02 0 2.67 15.12 56.82 0 0 2.48 2.73
17:03 2 22.9 49 63,736 0.5 0 2.68 23.1 61.31 0 0 1.97 2.16
17:02 2 23 49 63,705 0 0 2.52 16.36 68.02 0 0.71 3 4.53
17:01 2 23 49 63,659 0 0 2.04 11.67 73.04 0 0 1.97 3.03
17:00 2 23 49 63,570 0 0 1.7 11.45 83.58 0 0 2.48 2.73
16:59 2 23.1 49 63,584 0 0 1.91 11.47 90.85 0 0 1.97 2.16